Find Starlink 30892

NORAD ID: 58366 Int'l Des: 2023-177 Owner: SPXS Country: US Constellation: starlink operational
LEOCIRCULAR

Live Position

Loading 3D Globe...

About Starlink 30892

Description loading...

Upcoming Passes

Passes for default location (London). Set your location on the main map for personalized predictions.

Altitude History

Loading altitude history...

Two-Line Element Set

1 58366U 23177R 26127.12391922 .00010918 00000-0 40572-3 0 9995
2 58366 43.0017 20.6414 0001567 261.8263 98.2411 15.27576389137176
Epoch: May 7, 2026 • Age: 13 hours

Current Status

Altitude 486.2 km
Velocity 7.63 km/s
Sub-Earth Point 39.02°N, 31.97°E
Launch Date Nov 18, 2023
Age 2.4 years
Type internet

Technical Details

Classification Payload
Mass 730.00 kg
Dry Mass 700.00 kg
Total Mass 730.00 kg
Length 0.30 m
Diameter 4.10 m
Span 29.00 m
Shape Box + pan
Manufacturer SPXS
Bus Type Starlink V2M
Phase Status In Orbit
Owner/State SPXS/US

Most Searched